Year,Month,Day,Hour,Minute,Value (Times are PST for temperature in C)
2008,03,30,00,00,2.20
2008,03,30,00,01,2.20
2008,03,30,00,02,2.20
2008,03,30,00,03,2.20
2008,03,30,00,04,2.10
2008,03,30,00,05,2.10
2008,03,30,00,06,2.10
2008,03,30,00,07,2.10
2008,03,30,00,08,2.10
2008,03,30,00,09,2.10
2008,03,30,00,10,2.00
2008,03,30,00,11,2.00
2008,03,30,00,12,2.00
2008,03,30,00,13,2.00
2008,03,30,00,14,2.00
2008,03,30,00,15,2.00
2008,03,30,00,16,2.00
2008,03,30,00,17,1.90
2008,03,30,00,18,1.90
2008,03,30,00,19,1.90
2008,03,30,00,20,1.90
2008,03,30,00,21,1.90
2008,03,30,00,22,1.90
2008,03,30,00,23,1.90
2008,03,30,00,24,1.90
2008,03,30,00,25,1.90
2008,03,30,00,26,1.90
2008,03,30,00,27,1.90
2008,03,30,00,28,1.90
2008,03,30,00,29,1.90
2008,03,30,00,30,1.90
2008,03,30,00,31,1.90
2008,03,30,00,32,1.90
2008,03,30,00,33,1.90
2008,03,30,00,34,1.90
2008,03,30,00,35,1.90
2008,03,30,00,36,1.90
2008,03,30,00,37,1.90
2008,03,30,00,38,1.90
2008,03,30,00,39,1.90
2008,03,30,00,40,1.90
2008,03,30,00,41,1.90
2008,03,30,00,42,1.90
2008,03,30,00,43,1.90
2008,03,30,00,44,1.90
2008,03,30,00,45,1.90
2008,03,30,00,46,1.90
2008,03,30,00,47,1.90
2008,03,30,00,48,1.90
2008,03,30,00,49,1.90
2008,03,30,00,50,1.90
2008,03,30,00,51,1.80
2008,03,30,00,52,1.80
2008,03,30,00,53,1.80
2008,03,30,00,54,1.80
2008,03,30,00,55,1.80
2008,03,30,00,56,1.80
2008,03,30,00,57,1.80
2008,03,30,00,58,1.80
2008,03,30,00,59,1.80
2008,03,30,01,00,1.80
2008,03,30,01,01,1.80
2008,03,30,01,02,1.80
2008,03,30,01,03,1.80
2008,03,30,01,04,1.80
2008,03,30,01,05,1.80
2008,03,30,01,06,1.80
2008,03,30,01,07,1.80
2008,03,30,01,08,1.80
2008,03,30,01,09,1.80
2008,03,30,01,10,1.80
2008,03,30,01,11,1.80
2008,03,30,01,12,1.80
2008,03,30,01,13,1.80
2008,03,30,01,14,1.80
2008,03,30,01,15,1.80
2008,03,30,01,16,1.80
2008,03,30,01,17,1.80
2008,03,30,01,18,1.80
2008,03,30,01,19,1.80
2008,03,30,01,20,1.80
2008,03,30,01,21,1.80
2008,03,30,01,22,1.80
2008,03,30,01,23,1.80
2008,03,30,01,24,1.80
2008,03,30,01,25,1.80
2008,03,30,01,26,1.80
2008,03,30,01,27,1.80
2008,03,30,01,28,1.80
2008,03,30,01,29,1.80
2008,03,30,01,30,1.80
2008,03,30,01,31,1.80
2008,03,30,01,32,1.80
2008,03,30,01,33,1.80
2008,03,30,01,34,1.90
2008,03,30,01,35,1.90
2008,03,30,01,36,1.90
2008,03,30,01,37,1.90
2008,03,30,01,38,1.90
2008,03,30,01,39,1.90
2008,03,30,01,40,1.90
2008,03,30,01,41,1.90
2008,03,30,01,42,1.90
2008,03,30,01,43,1.90
2008,03,30,01,44,1.90
2008,03,30,01,45,1.90
2008,03,30,01,46,1.90
2008,03,30,01,47,1.90
2008,03,30,01,48,1.90
2008,03,30,01,49,1.90
2008,03,30,01,50,2.00
2008,03,30,01,51,2.00
2008,03,30,01,52,2.00
2008,03,30,01,53,2.00
2008,03,30,01,54,2.00
2008,03,30,01,55,2.00
2008,03,30,01,56,2.00
2008,03,30,01,57,2.00
2008,03,30,01,58,2.00
2008,03,30,01,59,2.00
2008,03,30,02,00,2.00
2008,03,30,02,01,2.10
2008,03,30,02,02,2.10
2008,03,30,02,03,2.10
2008,03,30,02,04,2.10
2008,03,30,02,05,2.10
2008,03,30,02,06,2.10
2008,03,30,02,07,2.10
2008,03,30,02,08,2.10
2008,03,30,02,09,2.10
2008,03,30,02,10,2.10
2008,03,30,02,11,2.10
2008,03,30,02,12,2.10
2008,03,30,02,13,2.10
2008,03,30,02,14,2.10
2008,03,30,02,15,2.10
2008,03,30,02,16,2.10
2008,03,30,02,17,2.10
2008,03,30,02,18,2.10
2008,03,30,02,19,2.10
2008,03,30,02,20,2.10
2008,03,30,02,21,2.10
2008,03,30,02,22,2.20
2008,03,30,02,23,2.20
2008,03,30,02,24,2.20
2008,03,30,02,25,2.20
2008,03,30,02,26,2.20
2008,03,30,02,27,2.20
2008,03,30,02,28,2.20
2008,03,30,02,29,2.20
2008,03,30,02,30,2.20
2008,03,30,02,31,2.20
2008,03,30,02,32,2.20
2008,03,30,02,33,2.20
2008,03,30,02,34,2.20
2008,03,30,02,35,2.20
2008,03,30,02,36,2.20
2008,03,30,02,37,2.20
2008,03,30,02,38,2.20
2008,03,30,02,39,2.20
2008,03,30,02,40,2.20
2008,03,30,02,41,2.20
2008,03,30,02,42,2.20
2008,03,30,02,43,2.20
2008,03,30,02,44,2.20
2008,03,30,02,45,2.30
2008,03,30,02,46,2.30
2008,03,30,02,47,2.30
2008,03,30,02,48,2.30
2008,03,30,02,49,2.30
2008,03,30,02,50,2.30
2008,03,30,02,51,2.30
2008,03,30,02,52,2.30
2008,03,30,02,53,2.30
2008,03,30,02,54,2.30
2008,03,30,02,55,2.30
2008,03,30,02,56,2.30
2008,03,30,02,57,2.30
2008,03,30,02,58,2.30
2008,03,30,02,59,2.30
2008,03,30,03,00,2.30
2008,03,30,03,01,2.30
2008,03,30,03,02,2.30
2008,03,30,03,03,2.30
2008,03,30,03,04,2.30
2008,03,30,03,05,2.30
2008,03,30,03,06,2.30
2008,03,30,03,07,2.30
2008,03,30,03,08,2.30
2008,03,30,03,09,2.30
2008,03,30,03,10,2.30
2008,03,30,03,11,2.30
2008,03,30,03,12,2.30
2008,03,30,03,13,2.30
2008,03,30,03,14,2.30
2008,03,30,03,15,2.30
2008,03,30,03,16,2.30
2008,03,30,03,17,2.30
2008,03,30,03,18,2.30
2008,03,30,03,19,2.30
2008,03,30,03,20,2.30
2008,03,30,03,21,2.30
2008,03,30,03,22,2.30
2008,03,30,03,23,2.30
2008,03,30,03,24,2.30
2008,03,30,03,25,2.30
2008,03,30,03,26,2.30
2008,03,30,03,27,2.30
2008,03,30,03,28,2.30
2008,03,30,03,29,2.30
2008,03,30,03,30,2.30
2008,03,30,03,31,2.30
2008,03,30,03,32,2.30
2008,03,30,03,33,2.30
2008,03,30,03,34,2.30
2008,03,30,03,35,2.30
2008,03,30,03,36,2.30
2008,03,30,03,37,2.30
2008,03,30,03,38,2.30
2008,03,30,03,39,2.30
2008,03,30,03,40,2.30
2008,03,30,03,41,2.30
2008,03,30,03,42,2.30
2008,03,30,03,43,2.30
2008,03,30,03,44,2.40
2008,03,30,03,45,2.40
2008,03,30,03,46,2.40
2008,03,30,03,47,2.30
2008,03,30,03,48,2.30
2008,03,30,03,49,2.40
2008,03,30,03,50,2.40
2008,03,30,03,51,2.40
2008,03,30,03,52,2.40
2008,03,30,03,53,2.40
2008,03,30,03,54,2.40
2008,03,30,03,55,2.40
2008,03,30,03,56,2.40
2008,03,30,03,57,2.40
2008,03,30,03,58,2.40
2008,03,30,03,59,2.40
2008,03,30,04,00,2.40
2008,03,30,04,01,2.40
2008,03,30,04,02,2.30
2008,03,30,04,03,2.30
2008,03,30,04,04,2.30
2008,03,30,04,05,2.30
2008,03,30,04,06,2.30
2008,03,30,04,07,2.30
2008,03,30,04,08,2.30
2008,03,30,04,09,2.30
2008,03,30,04,10,2.30
2008,03,30,04,11,2.30
2008,03,30,04,12,2.30
2008,03,30,04,13,2.30
2008,03,30,04,14,2.30
2008,03,30,04,15,2.30
2008,03,30,04,16,2.30
2008,03,30,04,17,2.30
2008,03,30,04,18,2.30
2008,03,30,04,19,2.30
2008,03,30,04,20,2.30
2008,03,30,04,21,2.30
2008,03,30,04,22,2.30
2008,03,30,04,23,2.20
2008,03,30,04,24,2.20
2008,03,30,04,25,2.20
2008,03,30,04,26,2.20
2008,03,30,04,27,2.20
2008,03,30,04,28,2.20
2008,03,30,04,29,2.20
2008,03,30,04,30,2.20
2008,03,30,04,31,2.20
2008,03,30,04,32,2.20
2008,03,30,04,33,2.20
2008,03,30,04,34,2.20
2008,03,30,04,35,2.20
2008,03,30,04,36,2.20
2008,03,30,04,37,2.20
2008,03,30,04,38,2.20
2008,03,30,04,39,2.20
2008,03,30,04,40,2.20
2008,03,30,04,41,2.20
2008,03,30,04,42,2.20
2008,03,30,04,43,2.20
2008,03,30,04,44,2.20
2008,03,30,04,45,2.20
2008,03,30,04,46,2.20
2008,03,30,04,47,2.20
2008,03,30,04,48,2.20
2008,03,30,04,49,2.20
2008,03,30,04,50,2.20
2008,03,30,04,51,2.20
2008,03,30,04,52,2.10
2008,03,30,04,53,2.10
2008,03,30,04,54,2.10
2008,03,30,04,55,2.10
2008,03,30,04,56,2.10
2008,03,30,04,57,2.10
2008,03,30,04,58,2.10
2008,03,30,04,59,2.10
2008,03,30,05,00,2.10
2008,03,30,05,01,2.10
2008,03,30,05,02,2.10
2008,03,30,05,03,2.10
2008,03,30,05,04,2.10
2008,03,30,05,05,2.10
2008,03,30,05,06,2.10
2008,03,30,05,07,2.10
2008,03,30,05,08,2.00
2008,03,30,05,09,2.00
2008,03,30,05,10,2.00
2008,03,30,05,11,2.00
2008,03,30,05,12,2.00
2008,03,30,05,13,1.90
2008,03,30,05,14,1.90
2008,03,30,05,15,1.90
2008,03,30,05,16,1.90
2008,03,30,05,17,1.90
2008,03,30,05,18,1.90
2008,03,30,05,19,1.90
2008,03,30,05,20,1.90
2008,03,30,05,21,1.90
2008,03,30,05,22,1.90
2008,03,30,05,23,1.90
2008,03,30,05,24,1.90
2008,03,30,05,25,1.90
2008,03,30,05,26,1.90
2008,03,30,05,27,1.90
2008,03,30,05,28,1.90
2008,03,30,05,29,1.90
2008,03,30,05,30,1.90
2008,03,30,05,31,1.90
2008,03,30,05,32,1.90
2008,03,30,05,33,1.90
2008,03,30,05,34,1.90
2008,03,30,05,35,1.90
2008,03,30,05,36,1.90
2008,03,30,05,37,1.90
2008,03,30,05,38,1.90
2008,03,30,05,39,1.90
2008,03,30,05,40,1.90
2008,03,30,05,41,1.90
2008,03,30,05,42,1.90
2008,03,30,05,43,1.90
2008,03,30,05,44,1.90
2008,03,30,05,45,1.90
2008,03,30,05,46,1.90
2008,03,30,05,47,1.90
2008,03,30,05,48,1.90
2008,03,30,05,49,1.90
2008,03,30,05,50,1.90
2008,03,30,05,51,1.90
2008,03,30,05,52,1.90
2008,03,30,05,53,1.90
2008,03,30,05,54,1.90
2008,03,30,05,55,1.90
2008,03,30,05,56,1.90
2008,03,30,05,57,1.90
2008,03,30,05,58,1.90
2008,03,30,05,59,1.90
2008,03,30,06,00,1.90
2008,03,30,06,01,1.90
2008,03,30,06,02,1.90
2008,03,30,06,03,1.90
2008,03,30,06,04,1.90
2008,03,30,06,05,1.90
2008,03,30,06,06,1.90
2008,03,30,06,07,1.90
2008,03,30,06,08,1.90
2008,03,30,06,09,1.90
2008,03,30,06,10,1.90
2008,03,30,06,11,1.90
2008,03,30,06,12,1.90
2008,03,30,06,13,1.90
2008,03,30,06,14,2.00
2008,03,30,06,15,2.00
2008,03,30,06,16,2.00
2008,03,30,06,17,2.00
2008,03,30,06,18,2.00
2008,03,30,06,19,2.00
2008,03,30,06,20,2.00
2008,03,30,06,21,2.00
2008,03,30,06,22,2.00
2008,03,30,06,23,2.00
2008,03,30,06,24,2.00
2008,03,30,06,25,2.10
2008,03,30,06,26,2.10
2008,03,30,06,27,2.10
2008,03,30,06,28,2.00
2008,03,30,06,29,2.00
2008,03,30,06,30,1.90
2008,03,30,06,31,1.90
2008,03,30,06,32,1.90
2008,03,30,06,33,1.80
2008,03,30,06,34,1.80
2008,03,30,06,35,1.80
2008,03,30,06,36,1.70
2008,03,30,06,37,1.70
2008,03,30,06,38,1.70
2008,03,30,06,39,1.60
2008,03,30,06,40,1.60
2008,03,30,06,41,1.60
2008,03,30,06,42,1.60
2008,03,30,06,43,1.60
2008,03,30,06,44,1.60
2008,03,30,06,45,1.50
2008,03,30,06,46,1.50
2008,03,30,06,47,1.50
2008,03,30,06,48,1.50
2008,03,30,06,49,1.50
2008,03,30,06,50,1.50
2008,03,30,06,51,1.40
2008,03,30,06,52,1.40
2008,03,30,06,53,1.40
2008,03,30,06,54,1.40
2008,03,30,06,55,1.50
2008,03,30,06,56,1.50
2008,03,30,06,57,1.50
2008,03,30,06,58,1.50
2008,03,30,06,59,1.50
2008,03,30,07,00,1.50
2008,03,30,07,01,1.50
2008,03,30,07,02,1.50
2008,03,30,07,03,1.50
2008,03,30,07,04,1.60
2008,03,30,07,05,1.60
2008,03,30,07,06,1.60
2008,03,30,07,07,1.60
2008,03,30,07,08,1.60
2008,03,30,07,09,1.60
2008,03,30,07,10,1.60
2008,03,30,07,11,1.60
2008,03,30,07,12,1.60
2008,03,30,07,13,1.60
2008,03,30,07,14,1.60
2008,03,30,07,15,1.60
2008,03,30,07,16,1.50
2008,03,30,07,17,1.50
2008,03,30,07,18,1.50
2008,03,30,07,19,1.50
2008,03,30,07,20,1.50
2008,03,30,07,21,1.50
2008,03,30,07,22,1.50
2008,03,30,07,23,1.50
2008,03,30,07,24,1.50
2008,03,30,07,25,1.50
2008,03,30,07,26,1.50
2008,03,30,07,27,1.50
2008,03,30,07,28,1.50
2008,03,30,07,29,1.50
2008,03,30,07,30,1.50
2008,03,30,07,31,1.50
2008,03,30,07,32,1.50
2008,03,30,07,33,1.50
2008,03,30,07,34,1.50
2008,03,30,07,35,1.50
2008,03,30,07,36,1.50
2008,03,30,07,37,1.50
2008,03,30,07,38,1.50
2008,03,30,07,39,1.60
2008,03,30,07,40,1.60
2008,03,30,07,41,1.60
2008,03,30,07,42,1.60
2008,03,30,07,43,1.60
2008,03,30,07,44,1.60
2008,03,30,07,45,1.60
2008,03,30,07,46,1.60
2008,03,30,07,47,1.60
2008,03,30,07,48,1.60
2008,03,30,07,49,1.60
2008,03,30,07,50,1.60
2008,03,30,07,51,1.60
2008,03,30,07,52,1.70
2008,03,30,07,53,1.70
2008,03,30,07,54,1.70
2008,03,30,07,55,1.70
2008,03,30,07,56,1.70
2008,03,30,07,57,1.70
2008,03,30,07,58,1.70
2008,03,30,07,59,1.70
2008,03,30,08,00,1.80
2008,03,30,08,01,1.80
2008,03,30,08,02,1.80
2008,03,30,08,03,1.80
2008,03,30,08,04,1.80
2008,03,30,08,05,1.80
2008,03,30,08,06,1.80
2008,03,30,08,07,1.80
2008,03,30,08,08,1.90
2008,03,30,08,09,1.90
2008,03,30,08,10,1.90
2008,03,30,08,11,1.90
2008,03,30,08,12,1.90
2008,03,30,08,13,2.00
2008,03,30,08,14,2.00
2008,03,30,08,15,2.00
2008,03,30,08,16,2.10
2008,03,30,08,17,2.10
2008,03,30,08,18,2.10
2008,03,30,08,19,2.10
2008,03,30,08,20,2.10
2008,03,30,08,21,2.10
2008,03,30,08,22,2.10
2008,03,30,08,23,2.10
2008,03,30,08,24,2.20
2008,03,30,08,25,2.20
2008,03,30,08,26,2.20
2008,03,30,08,27,2.20
2008,03,30,08,28,2.20
2008,03,30,08,29,2.20
2008,03,30,08,30,2.20
2008,03,30,08,31,2.20
2008,03,30,08,32,2.20
2008,03,30,08,33,2.20
2008,03,30,08,34,2.30
2008,03,30,08,35,2.30
2008,03,30,08,36,2.30
2008,03,30,08,37,2.30
2008,03,30,08,38,2.30
2008,03,30,08,39,2.30
2008,03,30,08,40,2.30
2008,03,30,08,41,2.30
2008,03,30,08,42,2.30
2008,03,30,08,43,2.40
2008,03,30,08,44,2.40
2008,03,30,08,45,2.40
2008,03,30,08,46,2.40
2008,03,30,08,47,2.40
2008,03,30,08,48,2.50
2008,03,30,08,49,2.50
2008,03,30,08,50,2.50
2008,03,30,08,51,2.50
2008,03,30,08,52,2.50
2008,03,30,08,53,2.60
2008,03,30,08,54,2.60
2008,03,30,08,55,2.60
2008,03,30,08,56,2.60
2008,03,30,08,57,2.60
2008,03,30,08,58,2.60
2008,03,30,08,59,2.60
2008,03,30,09,00,2.60
2008,03,30,09,01,2.60
2008,03,30,09,02,2.60
2008,03,30,09,03,2.60
2008,03,30,09,04,2.60
2008,03,30,09,05,2.60
2008,03,30,09,06,2.60
2008,03,30,09,07,2.60
2008,03,30,09,08,2.60
2008,03,30,09,09,2.60
2008,03,30,09,10,2.60
2008,03,30,09,11,2.60
2008,03,30,09,12,2.60
2008,03,30,09,13,2.60
2008,03,30,09,14,2.60
2008,03,30,09,15,2.60
2008,03,30,09,16,2.70
2008,03,30,09,17,2.70
2008,03,30,09,18,2.70
2008,03,30,09,19,2.70
2008,03,30,09,20,2.70
2008,03,30,09,21,2.70
2008,03,30,09,22,2.70
2008,03,30,09,23,2.70
2008,03,30,09,24,2.70
2008,03,30,09,25,2.70
2008,03,30,09,26,2.70
2008,03,30,09,27,2.70
2008,03,30,09,28,2.70
2008,03,30,09,29,2.80
2008,03,30,09,30,2.80
2008,03,30,09,31,2.80
2008,03,30,09,32,2.80
2008,03,30,09,33,2.80
2008,03,30,09,34,2.80
2008,03,30,09,35,2.80
2008,03,30,09,36,2.90
2008,03,30,09,37,2.90
2008,03,30,09,38,3.00
2008,03,30,09,39,3.00
2008,03,30,09,40,3.10
2008,03,30,09,41,3.20
2008,03,30,09,42,3.20
2008,03,30,09,43,3.30
2008,03,30,09,44,3.30
2008,03,30,09,45,3.40
2008,03,30,09,46,3.40
2008,03,30,09,47,3.50
2008,03,30,09,48,3.50
2008,03,30,09,49,3.60
2008,03,30,09,50,3.70
2008,03,30,09,51,3.80
2008,03,30,09,52,3.80
2008,03,30,09,53,3.90
2008,03,30,09,54,3.90
2008,03,30,09,55,4.00
2008,03,30,09,56,4.10
2008,03,30,09,57,4.10
2008,03,30,09,58,4.10
2008,03,30,09,59,4.10
2008,03,30,10,00,4.10
2008,03,30,10,01,4.10
2008,03,30,10,02,4.10
2008,03,30,10,03,4.10
2008,03,30,10,04,4.10
2008,03,30,10,05,4.10
2008,03,30,10,06,4.10
2008,03,30,10,07,4.10
2008,03,30,10,08,4.20
2008,03,30,10,09,4.20
2008,03,30,10,10,4.30
2008,03,30,10,11,4.30
2008,03,30,10,12,4.30
2008,03,30,10,13,4.30
2008,03,30,10,14,4.30
2008,03,30,10,15,4.30
2008,03,30,10,16,4.30
2008,03,30,10,17,4.20
2008,03,30,10,18,4.20
2008,03,30,10,19,4.20
2008,03,30,10,20,4.10
2008,03,30,10,21,4.10
2008,03,30,10,22,4.10
2008,03,30,10,23,4.00
2008,03,30,10,24,3.90
2008,03,30,10,25,3.90
2008,03,30,10,26,3.80
2008,03,30,10,27,3.70
2008,03,30,10,28,3.70
2008,03,30,10,29,3.70
2008,03,30,10,30,3.70
2008,03,30,10,31,3.60
2008,03,30,10,32,3.60
2008,03,30,10,33,3.60
2008,03,30,10,34,3.60
2008,03,30,10,35,3.70
2008,03,30,10,36,3.70
2008,03,30,10,37,3.70
2008,03,30,10,38,3.70
2008,03,30,10,39,3.70
2008,03,30,10,40,3.70
2008,03,30,10,41,3.70
2008,03,30,10,42,3.70
2008,03,30,10,43,3.70
2008,03,30,10,44,3.70
2008,03,30,10,45,3.80
2008,03,30,10,46,3.80
2008,03,30,10,47,3.70
2008,03,30,10,48,3.70
2008,03,30,10,49,3.70
2008,03,30,10,50,3.60
2008,03,30,10,51,3.50
2008,03,30,10,52,3.40
2008,03,30,10,53,3.40
2008,03,30,10,54,3.30
2008,03,30,10,55,3.20
2008,03,30,10,56,3.10
2008,03,30,10,57,3.00
2008,03,30,10,58,3.00
2008,03,30,10,59,2.90
2008,03,30,11,00,2.90
2008,03,30,11,01,2.90
2008,03,30,11,02,2.80
2008,03,30,11,03,2.80
2008,03,30,11,04,2.80
2008,03,30,11,05,2.70
2008,03,30,11,06,2.70
2008,03,30,11,07,2.70
2008,03,30,11,08,2.70
2008,03,30,11,09,2.70
2008,03,30,11,10,2.70
2008,03,30,11,11,2.60
2008,03,30,11,12,2.60
2008,03,30,11,13,2.60
2008,03,30,11,14,2.60
2008,03,30,11,15,2.50
2008,03,30,11,16,2.50
2008,03,30,11,17,2.50
2008,03,30,11,18,2.50
2008,03,30,11,19,2.50
2008,03,30,11,20,2.50
2008,03,30,11,21,2.50
2008,03,30,11,22,2.50
2008,03,30,11,23,2.50
2008,03,30,11,24,2.50
2008,03,30,11,25,2.60
2008,03,30,11,26,2.50
2008,03,30,11,27,2.50
2008,03,30,11,28,2.50
2008,03,30,11,29,2.50
2008,03,30,11,30,2.50
2008,03,30,11,31,2.50
2008,03,30,11,32,2.50
2008,03,30,11,33,2.50
2008,03,30,11,34,2.50
2008,03,30,11,35,2.50
2008,03,30,11,36,2.50
2008,03,30,11,37,2.50
2008,03,30,11,38,2.50
2008,03,30,11,39,2.50
2008,03,30,11,40,2.50
2008,03,30,11,41,2.50
2008,03,30,11,42,2.60
2008,03,30,11,43,2.60
2008,03,30,11,44,2.60
2008,03,30,11,45,2.60
2008,03,30,11,46,2.70
2008,03,30,11,47,2.70
2008,03,30,11,48,2.70
2008,03,30,11,49,2.80
2008,03,30,11,50,2.80
2008,03,30,11,51,2.80
2008,03,30,11,52,2.90
2008,03,30,11,53,3.00
2008,03,30,11,54,3.10
2008,03,30,11,55,3.10
2008,03,30,11,56,3.20
2008,03,30,11,57,3.20
2008,03,30,11,58,3.20
2008,03,30,11,59,3.30
2008,03,30,12,00,3.30
2008,03,30,12,01,3.30
2008,03,30,12,02,3.30
2008,03,30,12,03,3.40
2008,03,30,12,04,3.40
2008,03,30,12,05,3.50
2008,03,30,12,06,3.60
2008,03,30,12,07,3.70
2008,03,30,12,08,3.70
2008,03,30,12,09,3.80
2008,03,30,12,10,3.90
2008,03,30,12,11,4.00
2008,03,30,12,12,4.00
2008,03,30,12,13,4.10
2008,03,30,12,14,4.20
2008,03,30,12,15,4.20
2008,03,30,12,16,4.30
2008,03,30,12,17,4.40
2008,03,30,12,18,4.40
2008,03,30,12,19,4.40
2008,03,30,12,20,4.50
2008,03,30,12,21,4.50
2008,03,30,12,22,4.50
2008,03,30,12,23,4.60
2008,03,30,12,24,4.60
2008,03,30,12,25,4.60
2008,03,30,12,26,4.70
2008,03,30,12,27,4.70
2008,03,30,12,28,4.70
2008,03,30,12,29,4.70
2008,03,30,12,30,4.80
2008,03,30,12,31,4.80
2008,03,30,12,32,4.80
2008,03,30,12,33,4.80
2008,03,30,12,34,4.80
2008,03,30,12,35,4.90
2008,03,30,12,36,4.90
2008,03,30,12,37,5.00
2008,03,30,12,38,5.10
2008,03,30,12,39,5.20
2008,03,30,12,40,5.20
2008,03,30,12,41,5.30
2008,03,30,12,42,5.30
2008,03,30,12,43,5.40
2008,03,30,12,44,5.50
2008,03,30,12,45,5.60
2008,03,30,12,46,5.70
2008,03,30,12,47,5.80
2008,03,30,12,48,5.90
2008,03,30,12,49,5.90
2008,03,30,12,50,5.90
2008,03,30,12,51,5.90
2008,03,30,12,52,5.90
2008,03,30,12,53,5.90
2008,03,30,12,54,5.90
2008,03,30,12,55,5.90
2008,03,30,12,56,5.90
2008,03,30,12,57,6.00
2008,03,30,12,58,6.00
2008,03,30,12,59,6.10
2008,03,30,13,00,6.10
2008,03,30,13,01,6.20
2008,03,30,13,02,6.20
2008,03,30,13,03,6.30
2008,03,30,13,04,6.40
2008,03,30,13,05,6.50
2008,03,30,13,06,6.60
2008,03,30,13,07,6.60
2008,03,30,13,08,6.60
2008,03,30,13,09,6.60
2008,03,30,13,10,6.60
2008,03,30,13,11,6.60
2008,03,30,13,12,6.60
2008,03,30,13,13,6.60
2008,03,30,13,14,6.60
2008,03,30,13,15,6.60
2008,03,30,13,16,6.50
2008,03,30,13,17,6.50
2008,03,30,13,18,6.40
2008,03,30,13,19,6.40
2008,03,30,13,20,6.40
2008,03,30,13,21,6.40
2008,03,30,13,22,6.40
2008,03,30,13,23,6.30
2008,03,30,13,24,6.30
2008,03,30,13,25,6.30
2008,03,30,13,26,6.40
2008,03,30,13,27,6.50
2008,03,30,13,28,6.50
2008,03,30,13,29,6.50
2008,03,30,13,30,6.50
2008,03,30,13,31,6.50
2008,03,30,13,32,6.50
2008,03,30,13,33,6.50
2008,03,30,13,34,6.40
2008,03,30,13,35,6.50
2008,03,30,13,36,6.50
2008,03,30,13,37,6.50
2008,03,30,13,38,6.60
2008,03,30,13,39,6.60
2008,03,30,13,40,6.60
2008,03,30,13,41,6.70
2008,03,30,13,42,6.70
2008,03,30,13,43,6.70
2008,03,30,13,44,6.60
2008,03,30,13,45,6.60
2008,03,30,13,46,6.60
2008,03,30,13,47,6.50
2008,03,30,13,48,6.50
2008,03,30,13,49,6.60
2008,03,30,13,50,6.60
2008,03,30,13,51,6.60
2008,03,30,13,52,6.70
2008,03,30,13,53,6.80
2008,03,30,13,54,6.80
2008,03,30,13,55,6.90
2008,03,30,13,56,6.90
2008,03,30,13,57,7.00
2008,03,30,13,58,7.00
2008,03,30,13,59,7.00
2008,03,30,14,00,7.00
2008,03,30,14,01,6.90
2008,03,30,14,02,6.90
2008,03,30,14,03,6.90
2008,03,30,14,04,6.90
2008,03,30,14,05,7.00
2008,03,30,14,06,6.90
2008,03,30,14,07,6.90
2008,03,30,14,08,6.80
2008,03,30,14,09,6.90
2008,03,30,14,10,6.90
2008,03,30,14,11,6.90
2008,03,30,14,12,7.00
2008,03,30,14,13,7.00
2008,03,30,14,14,7.10
2008,03,30,14,15,7.10
2008,03,30,14,16,7.20
2008,03,30,14,17,7.20
2008,03,30,14,18,7.20
2008,03,30,14,19,7.20
2008,03,30,14,20,7.20
2008,03,30,14,21,7.20
2008,03,30,14,22,7.20
2008,03,30,14,23,7.10
2008,03,30,14,24,7.10
2008,03,30,14,25,7.10
2008,03,30,14,26,7.10
2008,03,30,14,27,7.10
2008,03,30,14,28,7.20
2008,03,30,14,29,7.20
2008,03,30,14,30,7.20
2008,03,30,14,31,7.30
2008,03,30,14,32,7.40
2008,03,30,14,33,7.40
2008,03,30,14,34,7.40
2008,03,30,14,35,7.40
2008,03,30,14,36,7.40
2008,03,30,14,37,7.40
2008,03,30,14,38,7.40
2008,03,30,14,39,7.40
2008,03,30,14,40,7.50
2008,03,30,14,41,7.50
2008,03,30,14,42,7.60
2008,03,30,14,43,7.60
2008,03,30,14,44,7.70
2008,03,30,14,45,7.80
2008,03,30,14,46,7.80
2008,03,30,14,47,7.90
2008,03,30,14,48,7.90
2008,03,30,14,49,7.90
2008,03,30,14,50,7.90
2008,03,30,14,51,7.90
2008,03,30,14,52,8.00
2008,03,30,14,53,8.10
2008,03,30,14,54,8.10
2008,03,30,14,55,8.10
2008,03,30,14,56,8.00
2008,03,30,14,57,8.00
2008,03,30,14,58,7.90
2008,03,30,14,59,7.90
2008,03,30,15,00,7.90
2008,03,30,15,01,7.90
2008,03,30,15,02,8.00
2008,03,30,15,03,8.00
2008,03,30,15,04,8.10
2008,03,30,15,05,8.10
2008,03,30,15,06,8.10
2008,03,30,15,07,8.20
2008,03,30,15,08,8.20
2008,03,30,15,09,8.20
2008,03,30,15,10,8.20
2008,03,30,15,11,8.20
2008,03,30,15,12,8.10
2008,03,30,15,13,8.10
2008,03,30,15,14,8.10
2008,03,30,15,15,8.10
2008,03,30,15,16,8.00
2008,03,30,15,17,8.00
2008,03,30,15,18,7.90
2008,03,30,15,19,7.90
2008,03,30,15,20,7.80
2008,03,30,15,21,7.80
2008,03,30,15,22,7.80
2008,03,30,15,23,7.80
2008,03,30,15,24,7.80
2008,03,30,15,25,7.70
2008,03,30,15,26,7.70
2008,03,30,15,27,7.70
2008,03,30,15,28,7.70
2008,03,30,15,29,7.80
2008,03,30,15,30,7.80
2008,03,30,15,31,7.90
2008,03,30,15,32,8.00
2008,03,30,15,33,8.00
2008,03,30,15,34,8.00
2008,03,30,15,35,8.10
2008,03,30,15,36,8.10
2008,03,30,15,37,8.10
2008,03,30,15,38,8.10
2008,03,30,15,39,8.10
2008,03,30,15,40,8.00
2008,03,30,15,41,8.00
2008,03,30,15,42,7.90
2008,03,30,15,43,7.90
2008,03,30,15,44,7.80
2008,03,30,15,45,7.80
2008,03,30,15,46,7.80
2008,03,30,15,47,7.70
2008,03,30,15,48,7.70
2008,03,30,15,49,7.60
2008,03,30,15,50,7.50
2008,03,30,15,51,7.40
2008,03,30,15,52,7.30
2008,03,30,15,53,7.20
2008,03,30,15,54,7.20
2008,03,30,15,55,7.10
2008,03,30,15,56,7.10
2008,03,30,15,57,7.00
2008,03,30,15,58,7.00
2008,03,30,15,59,7.00
2008,03,30,16,00,7.00
2008,03,30,16,01,7.00
2008,03,30,16,02,7.00
2008,03,30,16,03,7.00
2008,03,30,16,04,7.10
2008,03,30,16,05,7.20
2008,03,30,16,06,7.20
2008,03,30,16,07,7.20
2008,03,30,16,08,7.30
2008,03,30,16,09,7.30
2008,03,30,16,10,7.40
2008,03,30,16,11,7.40
2008,03,30,16,12,7.40
2008,03,30,16,13,7.50
2008,03,30,16,14,7.60
2008,03,30,16,15,7.50
2008,03,30,16,16,7.60
2008,03,30,16,17,7.50
2008,03,30,16,18,7.50
2008,03,30,16,19,7.40
2008,03,30,16,20,7.40
2008,03,30,16,21,7.30
2008,03,30,16,22,7.30
2008,03,30,16,23,7.30
2008,03,30,16,24,7.20
2008,03,30,16,25,7.20
2008,03,30,16,26,7.20
2008,03,30,16,27,7.20
2008,03,30,16,28,7.20
2008,03,30,16,29,7.20
2008,03,30,16,30,7.20
2008,03,30,16,31,7.20
2008,03,30,16,32,7.20
2008,03,30,16,33,7.30
2008,03,30,16,34,7.40
2008,03,30,16,35,7.50
2008,03,30,16,36,7.60
2008,03,30,16,37,7.60
2008,03,30,16,38,7.70
2008,03,30,16,39,7.70
2008,03,30,16,40,7.80
2008,03,30,16,41,7.80
2008,03,30,16,42,7.90
2008,03,30,16,43,7.90
2008,03,30,16,44,7.90
2008,03,30,16,45,8.00
2008,03,30,16,46,8.10
2008,03,30,16,47,8.10
2008,03,30,16,48,8.10
2008,03,30,16,49,8.20
2008,03,30,16,50,8.30
2008,03,30,16,51,8.30
2008,03,30,16,52,8.40
2008,03,30,16,53,8.50
2008,03,30,16,54,8.60
2008,03,30,16,55,8.60
2008,03,30,16,56,8.70
2008,03,30,16,57,8.80
2008,03,30,16,58,8.80
2008,03,30,16,59,8.90
2008,03,30,17,00,8.90
2008,03,30,17,01,8.90
2008,03,30,17,02,8.90
2008,03,30,17,03,8.80
2008,03,30,17,04,8.80
2008,03,30,17,05,8.70
2008,03,30,17,06,8.50
2008,03,30,17,07,8.30
2008,03,30,17,08,8.20
2008,03,30,17,09,8.10
2008,03,30,17,10,8.00
2008,03,30,17,11,7.90
2008,03,30,17,12,7.80
2008,03,30,17,13,7.70
2008,03,30,17,14,7.60
2008,03,30,17,15,7.50
2008,03,30,17,16,7.50
2008,03,30,17,17,7.40
2008,03,30,17,18,7.30
2008,03,30,17,19,7.20
2008,03,30,17,20,7.20
2008,03,30,17,21,7.20
2008,03,30,17,22,7.10
2008,03,30,17,23,7.10
2008,03,30,17,24,7.10
2008,03,30,17,25,7.10
2008,03,30,17,26,7.10
2008,03,30,17,27,7.10
2008,03,30,17,28,7.00
2008,03,30,17,29,7.00
2008,03,30,17,30,7.00
2008,03,30,17,31,6.90
2008,03,30,17,32,6.90
2008,03,30,17,33,6.90
2008,03,30,17,34,6.90
2008,03,30,17,35,6.90
2008,03,30,17,36,6.80
2008,03,30,17,37,6.70
2008,03,30,17,38,6.70
2008,03,30,17,39,6.60
2008,03,30,17,40,6.60
2008,03,30,17,41,6.50
2008,03,30,17,42,6.50
2008,03,30,17,43,6.40
2008,03,30,17,44,6.30
2008,03,30,17,45,6.20
2008,03,30,17,46,6.10
2008,03,30,17,47,6.10
2008,03,30,17,48,6.10
2008,03,30,17,49,6.10
2008,03,30,17,50,6.10
2008,03,30,17,51,6.10
2008,03,30,17,52,6.10
2008,03,30,17,53,6.20
2008,03,30,17,54,6.20
2008,03,30,17,55,6.20
2008,03,30,17,56,6.20
2008,03,30,17,57,6.20
2008,03,30,17,58,6.30
2008,03,30,17,59,6.30
2008,03,30,18,00,6.30
2008,03,30,18,01,6.30
2008,03,30,18,02,6.30
2008,03,30,18,03,6.30
2008,03,30,18,04,6.20
2008,03,30,18,05,6.20
2008,03,30,18,06,6.20